TimePST,TemperatureF,Dew PointF,Humidity,Sea Level PressureIn,VisibilityMPH,Wind Direction,Wind SpeedMPH,Gust SpeedMPH,PrecipitationIn,Events,Conditions,WindDirDegrees,DateUTC
12:52 AM,21.0,14.0,74,30.53,10.0,North,6.9,-,N/A,,Clear,350,2014-01-06 08:52:00
1:52 AM,23.0,15.1,72,30.54,10.0,North,6.9,-,N/A,,Clear,350,2014-01-06 09:52:00
2:52 AM,21.9,14.0,72,30.54,10.0,North,6.9,-,N/A,,Clear,360,2014-01-06 10:52:00
3:52 AM,21.9,15.1,75,30.53,10.0,North,8.1,-,N/A,,Clear,360,2014-01-06 11:52:00
4:52 AM,19.9,14.0,78,30.51,10.0,North,6.9,-,N/A,,Clear,360,2014-01-06 12:52:00
5:52 AM,19.9,14.0,78,30.50,10.0,North,9.2,-,N/A,,Clear,360,2014-01-06 13:52:00
6:52 AM,19.0,14.0,81,30.50,10.0,North,6.9,-,N/A,,Clear,360,2014-01-06 14:52:00
7:52 AM,18.0,12.9,81,30.51,10.0,North,8.1,-,N/A,,Clear,360,2014-01-06 15:52:00
8:52 AM,23.0,15.1,72,30.51,10.0,North,8.1,-,N/A,,Clear,360,2014-01-06 16:52:00
9:52 AM,28.0,17.1,63,30.49,10.0,NNE,10.4,-,N/A,,Clear,30,2014-01-06 17:52:00
10:52 AM,30.9,17.1,57,30.47,10.0,North,9.2,-,N/A,,Clear,10,2014-01-06 18:52:00
11:52 AM,35.1,18.0,50,30.42,10.0,North,6.9,-,N/A,,Clear,10,2014-01-06 19:52:00
12:52 PM,36.0,17.1,46,30.37,10.0,NE,5.8,-,N/A,,Clear,50,2014-01-06 20:52:00
1:52 PM,37.0,17.1,44,30.35,10.0,NNE,3.5,-,N/A,,Clear,30,2014-01-06 21:52:00
2:52 PM,37.0,17.1,44,30.34,10.0,Calm,Calm,-,N/A,,Clear,0,2014-01-06 22:52:00
3:52 PM,34.0,17.1,50,30.33,10.0,Calm,Calm,-,N/A,,Clear,0,2014-01-06 23:52:00
4:52 PM,28.9,16.0,58,30.31,10.0,WNW,5.8,-,N/A,,Clear,300,2014-01-07 00:52:00
5:52 PM,27.0,15.1,61,30.30,10.0,WNW,5.8,-,N/A,,Clear,300,2014-01-07 01:52:00
6:52 PM,24.1,14.0,65,30.30,10.0,WNW,5.8,-,N/A,,Clear,300,2014-01-07 02:52:00
7:52 PM,24.1,16.0,71,30.28,10.0,North,5.8,-,N/A,,Clear,360,2014-01-07 03:52:00
8:52 PM,25.0,17.1,72,30.27,10.0,North,6.9,-,N/A,,Clear,360,2014-01-07 04:52:00
9:52 PM,25.0,17.1,72,30.26,10.0,North,3.5,-,N/A,,Clear,360,2014-01-07 05:52:00
10:52 PM,25.0,18.0,75,30.25,10.0,Calm,Calm,-,N/A,,Clear,0,2014-01-07 06:52:00
11:52 PM,25.0,18.0,75,30.24,10.0,Calm,Calm,-,N/A,,Partly Cloudy,0,2014-01-07 07:52:00